Regional Weather Roundup
Issued by NWS

Home | Current Version | Previous Version | Graphics & Text | Print | Product List | Glossary On
Versions: 1 2 3 4 5 6 7 8 9 10 11 12 13 14 15 16 17 18 19 20 21 22 23 24 25 26 27 28 29 30 31 32 33 34 35 36 37 38 39 40 41 42 43 44 45 46 47 48 49 50
000
ASUS43 KIND 170059
RWRIN

WEATHER ROUNDUP FOR INDIANA
NATIONAL WEATHER SERVICE INDIANAPOLIS IN
800 PM EST SAT DEC 16 2017

NOTE: "FAIR" INDICATES FEW OR NO CLOUDS BELOW 12,000 FEET WITH NO
SIGNIFICANT WEATHER AND/OR OBSTRUCTIONS TO VISIBILITY.

* - STATION DOES NOT REPORT WEATHER SUCH AS PRECIPITATION OR FOG.

+ - STATION NOT QUALITY CONTROLLED BY THE NATIONAL WEATHER SERVICE.
    USE DATA WITH CAUTION...ESPECIALLY DEWPOINT AND RELATIVE
    HUMIDITY OBSERVATIONS.

INZ001>003-010>013-019-020-170200-
NORTHWEST INDIANA

CITY           SKY/WX    TMP DP  RH WIND       PRES   REMARKS
GARY /AIRPORT/ CLEAR     32  28  86 CALM      30.02R
MICHIGAN CITY+ CLEAR     32  27  80 CALM      30.03R
MONTICELLO +   CLEAR     39  27  62 CALM      30.03R
RENSSELAER +   CLOUDY    36  21  55 CALM      30.03R

$$

LMZ046-743>745-170200-
SOUTHERN LAKE MICHIGAN

STATION/POSITION TIME  TEMP    WIND        PRES    WAVE
                       AIR SEA DIR/SP/G            HT
                 (UTC) (F)     (DEG/KT/KT) (MB)    (FT)
BURNS HARBOR     0040   38      90/  4/  6 1016.9R
MICHIGAN CITY    0030   39      80/  4/  5   N/A

$$

INZ004-005-014>016-021>024-170200-
NORTH CENTRAL INDIANA

CITY           SKY/WX    TMP DP  RH WIND       PRES   REMARKS
GOSHEN         CLEAR     30  25  81 E5        30.04R WCI  25
PERU/GRISSOM   CLEAR     35  27  72 S5        30.04R WCI  31
SOUTH BEND     CLEAR     35  28  75 E5        30.04R WCI  31

$$

INZ006>009-017-018-025>027-170200-
NORTHEAST INDIANA

CITY           SKY/WX    TMP DP  RH WIND       PRES   REMARKS
FORT WAYNE     CLEAR     32  27  81 E3        30.07R

$$

INZ028-029-035-036-043>045-051>053-170200-
WEST CENTRAL INDIANA

CITY           SKY/WX    TMP DP  RH WIND       PRES   REMARKS
LAFAYETTE      CLEAR     40  29  64 S5        30.03R WCI  37
TERRE HAUTE    CLOUDY    42  28  57 S9        30.08R

$$

INZ030>032-037>040-046>048-054>057-064-065-170200-
CENTRAL INDIANA

CITY           SKY/WX    TMP DP  RH WIND       PRES   REMARKS
COLUMBUS       CLEAR     41  25  52 S10       30.08R
INDIANAPOLIS   PTCLDY    39  27  62 S7        30.06R WCI  34
-EAGLE CREEK   CLEAR     43  27  53 S7        30.05R
KOKOMO +       CLEAR     36  27  69 S6        30.06R WCI  31
MT COMFORT *+  CLEAR     37  30  75 S6        30.07R WCI  33
SHELBYVILLE    CLEAR     39  26  59 S8        30.07R WCI  33

$$

INZ033-034-041-042-049-050-058-059-170200-
EAST CENTRAL INDIANA

CITY           SKY/WX    TMP DP  RH WIND       PRES   REMARKS
MUNCIE         CLEAR     41  26  55 S3        30.07R
RICHMOND +     CLEAR     32  28  86 S7        30.08R WCI  26

$$

INZ060-061-067>069-081>083-085>088-170200-
SOUTHWEST INDIANA

CITY           SKY/WX    TMP DP  RH WIND       PRES   REMARKS
EVANSVILLE     CLOUDY    46  29  51 S9        30.14R
HUNTINGBURG +  CLOUDY    43  30  60 S9        30.14R

$$

INZ062-063-066-070>080-084-089>092-170200-
SOUTH CENTRAL AND SOUTHEAST INDIANA

CITY           SKY/WX    TMP DP  RH WIND       PRES   REMARKS
BLOOMINGTON    CLEAR     45  27  49 S12       30.07R
MADISON *+     CLEAR     41  28  60 S7        30.13S
SEYMOUR +      CLOUDY    41  27  56 S3        30.10

$$




USA.gov is the U.S. government's official web portal to all federal, state and local government web resources and services.